Kenosha, WI

6:22 AM CST on January 19, 2018 (GMT -0600)
Kenosha Regional

Weather History for KENW - October, 2011

Change the Weather History Date:

Friday, October 21, 2011

  Actual Average Record
Temperature  
Mean Temperature 44 °F -  
Max Temperature 54 °F 57 °F 82 °F (1953)
Min Temperature 34 °F 40 °F 25 °F (1960)
Degree Days  
Heating Degree Days 21    
Moisture  
Dew Point 32 °F    
Average Humidity 71    
Maximum Humidity 89    
Minimum Humidity 43    
Precipitation  
Precipitation 0.00 in - - ()
Sea Level Pressure  
Sea Level Pressure 30.03 in    
Wind  
Wind Speed 6 mph (West)    
Max Wind Speed 10 mph    
Max Gust Speed -    
Visibility 10 miles    
Events      
Averages and records for this station are not official NWS values.
T = Trace of Precipitation, MM = Missing Value Source: NWS Daily Summary

Daily Weather History Graph

Daily Weather History Graph

Search for Another Location

Airport or City:

Trip Planner

Search our weather history database for the weather conditions in past years. The results will help you decide how hot, cold, wet, or windy it might be!

Date:

Astronomy

Oct. 21, 2011 Rise Set
Actual Time 7:11 AM CDT 6:00 PM CDT
Civil Twilight 6:42 AM CDT 6:29 PM CDT
Nautical Twilight 6:10 AM CDT 7:01 PM CDT
Astronomical Twilight 5:37 AM CDT 7:34 PM CDT
Moon 12:53 AM CDT (10/21) 2:51 PM CDT (10/21)
Length of Visible Light 11h 46m
Length of Day
10h 48m
Waning Crescent, 33% of the Moon is Illuminated
Oct 21
Waning Crescent
Oct 26
New
Nov 2
First Quarter
Nov 10
Full
Nov 18
Last Quarter

Hourly Weather History & Observations

Time (CDT) Temp. Windchill Dew Point Humidity Pressure Visibility Wind Dir Wind Speed Gust Speed Precip Events Conditions
12:53 AM 39.9 °F 36.7 °F 34.0 °F 79% 29.91 in 10.0 mi WNW 4.6 mph - N/A   Clear
1:53 AM 36.0 °F 32.1 °F 32.0 °F 86% 29.92 in 10.0 mi WNW 4.6 mph - N/A   Clear
2:53 AM 36.0 °F 29.0 °F 32.0 °F 86% 29.94 in 10.0 mi West 9.2 mph - N/A   Clear
3:53 AM 36.0 °F 30.3 °F 32.0 °F 86% 29.95 in 10.0 mi West 6.9 mph - N/A   Clear
4:53 AM 34.0 °F 28.0 °F 30.9 °F 89% 29.98 in 10.0 mi WNW 6.9 mph - N/A   Clear
5:44 AM 35.6 °F 29.9 °F 32.0 °F 87% 29.97 in 10.0 mi WNW 6.9 mph - N/A   Mostly Cloudy
5:53 AM 37.0 °F 31.6 °F 33.1 °F 86% 29.99 in 10.0 mi WNW 6.9 mph - N/A   Mostly Cloudy
6:53 AM 37.9 °F 33.5 °F 33.1 °F 83% 30.02 in 10.0 mi WNW 5.8 mph - N/A   Overcast
7:34 AM 35.6 °F 29.9 °F 30.2 °F 81% 30.01 in 10.0 mi WNW 6.9 mph - N/A   Scattered Clouds
7:53 AM 36.0 °F 32.1 °F 30.9 °F 82% 30.04 in 10.0 mi WNW 4.6 mph - N/A   Clear
8:53 AM 39.9 °F 35.1 °F 33.1 °F 77% 30.06 in 10.0 mi NW 6.9 mph - N/A   Clear
10:53 AM 46.0 °F 43.1 °F 35.1 °F 66% 30.08 in 10.0 mi NNW 5.8 mph - N/A   Clear
11:53 AM 48.0 °F - 35.1 °F 61% 30.08 in 10.0 mi WNW 5.8 mph - N/A   Partly Cloudy
12:53 PM 50.0 °F - 35.1 °F 57% 30.06 in 10.0 mi NW 8.1 mph - N/A   Clear
1:53 PM 52.0 °F - 35.1 °F 53% 30.05 in 10.0 mi West 10.4 mph - N/A   Clear
2:53 PM 53.1 °F - 33.1 °F 47% 30.05 in 10.0 mi West 10.4 mph - N/A   Clear
3:53 PM 54.0 °F - 32.0 °F 43% 30.06 in 10.0 mi WNW 6.9 mph - N/A   Clear
4:53 PM 53.1 °F - 32.0 °F 45% 30.06 in 10.0 mi West 9.2 mph - N/A   Clear
5:53 PM 48.9 °F - 32.0 °F 52% 30.06 in 10.0 mi WSW 5.8 mph - N/A   Clear
6:53 PM 46.9 °F - 30.9 °F 54% 30.07 in 10.0 mi SW 3.5 mph - N/A   Clear
7:53 PM 42.1 °F 40.2 °F 33.1 °F 70% 30.08 in 10.0 mi SW 3.5 mph - N/A   Clear
8:53 PM 39.9 °F 36.7 °F 30.9 °F 70% 30.08 in 10.0 mi SSW 4.6 mph - N/A   Clear
10:53 PM 36.0 °F 33.3 °F 32.0 °F 86% 30.07 in 10.0 mi SW 3.5 mph - N/A   Clear
11:53 PM 36.0 °F 32.1 °F 30.0 °F 79% 30.07 in 10.0 mi WSW 4.6 mph - N/A   Clear